START_TIME,STEP,MOV.,M15,t_acc.,M20,t_acc.
1979-08-07 00:00:42.430 ,0,0,0.,24.0,0.,24.0
1979-08-07 00:01:06.430 ,1,1,0.,24.0,0.,24.0
1979-08-07 00:01:30.430 ,1,0,0.,24.0,0.,24.0
1979-08-07 00:01:54.430 ,2,1,0.,24.0,0.,24.0
1979-08-07 00:02:18.430 ,2,0,0.,24.0,0.,24.0
1979-08-07 00:02:42.430 ,3,1,0.,24.0,0.,24.0
1979-08-07 00:03:06.430 ,3,0,0.,24.0,0.,24.0
1979-08-07 00:03:30.430 ,4,1,0.,24.0,0.,24.0
1979-08-07 00:03:54.430 ,4,0,0.,24.0,0.,24.0
1979-08-07 00:04:18.430 ,5,1,0.,24.0,0.,24.0
1979-08-07 00:04:42.430 ,5,0,0.,24.0,0.,24.0
1979-08-07 00:05:06.430 ,6,1,0.,24.0,0.,24.0
1979-08-07 00:05:30.430 ,6,0,0.,24.0,0.,24.0
1979-08-07 00:05:54.430 ,7,1,0.,24.0,0.,24.0
1979-08-07 00:06:18.430 ,7,0,0.,24.0,0.,24.0
1979-08-07 00:06:42.430 ,7,1,0.,24.0,0.,24.0
1979-08-07 00:07:06.430 ,7,0,0.,24.0,0.,24.0
1979-08-07 00:07:30.430 ,6,1,0.,24.0,0.,24.0
1979-08-07 00:07:54.430 ,6,0,0.,24.0,0.,24.0
1979-08-07 00:08:18.430 ,5,1,0.,24.0,0.,24.0
1979-08-07 00:08:42.430 ,5,0,0.,24.0,0.,24.0
1979-08-07 00:09:06.430 ,4,1,0.,24.0,0.,24.0
1979-08-07 00:09:30.430 ,4,0,0.,24.0,0.,24.0
1979-08-07 00:09:54.430 ,3,1,0.,24.0,0.,24.0
1979-08-07 00:10:18.430 ,3,0,0.,24.0,0.,24.0
1979-08-07 00:10:42.430 ,2,1,0.,24.0,0.,24.0
1979-08-07 00:11:06.430 ,2,0,0.,24.0,0.,24.0
1979-08-07 00:11:30.430 ,1,1,0.,24.0,0.,24.0
1979-08-07 00:11:54.430 ,1,0,0.,24.0,0.,24.0
1979-08-07 00:12:18.430 ,0,1,0.,24.0,0.,24.0
1979-08-07 00:12:42.430 ,0,0,0.,24.0,0.,24.0
1979-08-07 00:13:06.430 ,0,1,0.,24.0,0.,24.0
1979-08-07 00:13:30.430 ,0,0,0.,24.0,0.,24.0
1979-08-07 00:13:54.430 ,1,1,0.,24.0,0.,24.0
1979-08-07 00:14:18.430 ,1,0,0.,24.0,0.,24.0
1979-08-07 00:14:42.430 ,2,1,0.,24.0,0.,24.0
1979-08-07 00:15:06.430 ,2,0,0.,24.0,0.,24.0
1979-08-07 00:15:30.430 ,3,1,0.,24.0,0.,24.0
1979-08-07 00:15:54.430 ,3,0,0.,24.0,0.,24.0
1979-08-07 00:16:18.430 ,4,1,0.,24.0,0.,24.0
1979-08-07 00:16:42.430 ,4,0,0.,24.0,0.,24.0
1979-08-07 00:17:06.430 ,5,1,0.,24.0,0.,24.0
1979-08-07 00:17:30.430 ,5,0,0.,24.0,0.,24.0
1979-08-07 00:17:54.430 ,6,1,0.,24.0,0.,24.0
1979-08-07 00:18:18.430 ,6,0,0.,24.0,0.,24.0
1979-08-07 00:18:42.430 ,7,0,0.,24.0,0.,24.0
1979-08-07 00:19:06.430 ,7,0,0.,24.0,0.,24.0
1979-08-07 00:19:30.430 ,3,1,0.,24.0,0.,24.0
1979-08-07 00:19:54.430 ,0,0,0.,24.0,0.,24.0
1979-08-07 00:20:25.030 ,0,0,0.,24.0,0.,24.0
1979-08-07 00:20:42.430 ,7,1,0.,24.0,0.,24.0
1979-08-07 00:21:06.430 ,3,1,0.,24.0,0.,24.0
1979-08-07 00:21:30.430 ,0,0,,0,,0
1979-08-07 00:21:30.430 ,0,1,0.,24.0,0.,24.0
1979-08-07 00:21:54.430 ,4,1,0.,24.0,0.,24.0
1979-08-07 00:22:18.430 ,7,1,0.,24.0,0.,24.0
1979-08-07 00:22:42.430 ,3,1,0.,24.0,0.,24.0
1979-08-07 00:23:06.430 ,0,1,0.,24.0,0.,24.0
1979-08-07 00:23:30.430 ,4,1,0.,24.0,0.,24.0
1979-08-07 00:23:54.430 ,7,1,0.,24.0,0.,24.0
1979-08-07 00:24:18.430 ,3,1,0.,24.0,0.,24.0
1979-08-07 00:24:42.430 ,0,1,0.,24.0,0.,24.0
1979-08-07 00:25:06.430 ,4,1,0.,24.0,0.,24.0
1979-08-07 00:25:30.430 ,7,1,0.,24.0,0.,24.0
1979-08-07 00:25:54.430 ,3,1,0.,24.0,0.,24.0
1979-08-07 00:26:18.430 ,0,1,0.,24.0,0.,24.0
1979-08-07 00:26:42.430 ,4,1,0.,24.0,0.,24.0
1979-08-07 00:27:06.430 ,7,1,0.,24.0,0.,24.0
1979-08-07 00:27:30.430 ,3,1,0.,24.0,0.,24.0
1979-08-07 00:27:54.430 ,0,1,0.,24.0,0.,24.0
1979-08-07 00:28:18.430 ,4,1,0.,24.0,0.,24.0
1979-08-07 00:28:42.430 ,7,1,0.,24.0,0.,24.0
1979-08-07 00:29:06.430 ,3,1,0.,24.0,0.,24.0
1979-08-07 00:29:30.430 ,0,1,0.,24.0,0.,24.0
1979-08-07 00:29:54.430 ,0,0,0.,24.0,0.,24.0
1979-08-07 00:30:18.430 ,0,0,0.,24.0,0.,24.0
1979-08-07 00:30:42.430 ,5,1,0.,24.0,0.,24.0
1979-08-07 00:31:06.430 ,5,0,0.,24.0,0.,24.0
1979-08-07 00:31:30.430 ,4,1,0.,24.0,0.,24.0
1979-08-07 00:31:54.430 ,4,0,0.,24.0,0.,24.0
1979-08-07 00:32:18.430 ,3,1,0.,24.0,0.,24.0
1979-08-07 00:32:42.430 ,3,0,0.,24.0,0.,24.0
1979-08-07 00:33:06.430 ,2,1,0.,24.0,0.,24.0
1979-08-07 00:33:30.430 ,2,0,0.,24.0,0.,24.0
1979-08-07 00:33:54.430 ,1,1,0.,24.0,0.,24.0
1979-08-07 00:34:18.430 ,1,0,0.,24.0,0.,24.0
1979-08-07 00:34:42.430 ,0,1,0.,24.0,0.,24.0
1979-08-07 00:35:06.430 ,0,0,0.,24.0,0.,24.0
1979-08-07 00:35:30.430 ,0,1,0.,24.0,0.,24.0
1979-08-07 00:35:54.430 ,0,0,0.,24.0,0.,24.0
1979-08-07 00:36:18.430 ,1,1,0.,24.0,0.,24.0
1979-08-07 00:36:42.430 ,1,0,0.,24.0,0.,24.0
1979-08-07 00:37:06.430 ,2,1,0.,24.0,0.,24.0
1979-08-07 00:37:30.430 ,2,0,0.,24.0,0.,24.0
1979-08-07 00:37:54.430 ,3,1,0.,24.0,0.,24.0
1979-08-07 00:38:18.430 ,3,0,0.,24.0,0.,24.0
1979-08-07 00:38:42.430 ,4,1,0.,24.0,0.,24.0
1979-08-07 00:39:06.430 ,4,0,0.,24.0,0.,24.0
1979-08-07 00:39:30.430 ,5,1,0.,24.0,0.,24.0
1979-08-07 00:39:54.430 ,5,0,0.,24.0,0.,24.0
1979-08-07 00:40:18.430 ,6,1,0.,24.0,0.,24.0
1979-08-07 00:40:42.430 ,6,0,0.,24.0,0.,24.0
1979-08-07 00:41:06.430 ,7,1,0.,24.0,0.,24.0
1979-08-07 00:41:30.430 ,7,0,0.,24.0,0.,24.0
1979-08-07 00:41:54.430 ,7,1,0.,24.0,0.,24.0
1979-08-07 00:42:18.430 ,7,0,0.,24.0,0.,24.0
1979-08-07 00:42:42.430 ,6,1,0.,24.0,0.,24.0
1979-08-07 00:43:06.430 ,6,0,0.,24.0,0.,24.0
1979-08-07 00:43:30.430 ,5,1,0.,24.0,0.,24.0
1979-08-07 00:43:54.430 ,5,0,0.,24.0,0.,24.0
1979-08-07 00:44:18.430 ,4,1,0.,24.0,0.,24.0
1979-08-07 00:44:42.430 ,4,0,0.,24.0,0.,24.0
1979-08-07 00:45:06.430 ,3,1,0.,24.0,0.,24.0
1979-08-07 00:45:30.430 ,3,0,0.,24.0,0.,24.0
1979-08-07 00:45:54.430 ,2,1,0.,24.0,0.,24.0
1979-08-07 00:46:18.430 ,2,0,0.,24.0,0.,24.0
1979-08-07 00:46:42.430 ,1,1,0.,24.0,0.,24.0
1979-08-07 00:47:06.430 ,1,0,0.,24.0,0.,24.0
1979-08-07 00:47:30.430 ,0,1,0.,24.0,0.,24.0
1979-08-07 00:47:54.430 ,0,0,0.,24.0,0.,24.0
1979-08-07 00:48:18.430 ,0,1,0.,24.0,0.,24.0
1979-08-07 00:48:42.430 ,0,0,0.,24.0,0.,24.0
1979-08-07 00:49:06.430 ,1,1,0.,24.0,0.,24.0
1979-08-07 00:49:30.430 ,1,0,0.,24.0,0.,24.0
1979-08-07 00:49:54.430 ,2,1,0.,24.0,0.,24.0
1979-08-07 00:50:18.430 ,2,0,0.,24.0,0.,24.0
1979-08-07 00:50:42.430 ,3,1,0.,24.0,0.,24.0
1979-08-07 00:51:06.430 ,3,0,0.,24.0,0.,24.0
1979-08-07 00:51:30.430 ,4,1,0.,24.0,0.,24.0
1979-08-07 00:51:54.430 ,4,0,0.,24.0,0.,24.0
1979-08-07 00:52:18.430 ,5,1,0.,24.0,0.,24.0
1979-08-07 00:52:42.430 ,5,0,0.,24.0,0.,24.0
1979-08-07 00:53:06.430 ,6,1,0.,24.0,0.,24.0
1979-08-07 00:53:30.430 ,6,0,0.,24.0,0.,24.0
1979-08-07 00:53:54.430 ,7,1,0.,24.0,0.,24.0
1979-08-07 00:54:18.430 ,7,0,0.,24.0,0.,24.0
1979-08-07 00:54:42.430 ,7,1,0.,24.0,0.,24.0
1979-08-07 00:55:06.430 ,7,0,0.,24.0,0.,24.0
1979-08-07 00:55:30.430 ,6,1,0.,24.0,0.,24.0
1979-08-07 00:55:54.430 ,6,0,0.,24.0,0.,24.0
1979-08-07 00:56:18.430 ,5,1,0.,24.0,0.,24.0
1979-08-07 00:56:42.430 ,5,0,0.,24.0,0.,24.0
1979-08-07 00:57:06.430 ,4,1,0.,24.0,0.,24.0
1979-08-07 00:57:30.430 ,4,0,0.,24.0,0.,24.0
1979-08-07 00:57:54.430 ,3,1,0.,24.0,0.,24.0
1979-08-07 00:58:18.430 ,3,0,0.,24.0,0.,24.0
1979-08-07 00:58:42.430 ,2,1,0.,24.0,0.,24.0
1979-08-07 00:59:06.430 ,2,0,0.,24.0,0.,24.0
1979-08-07 00:59:30.430 ,1,1,0.,24.0,0.,24.0
1979-08-07 00:59:54.430 ,1,0,0.,24.0,0.,24.0
1979-08-07 01:00:18.430 ,0,1,0.,24.0,0.,24.0
1979-08-07 01:00:42.430 ,0,0,0.,24.0,0.,24.0
1979-08-07 01:01:06.430 ,0,1,0.,24.0,0.,24.0
1979-08-07 01:01:30.430 ,0,0,0.,24.0,0.,24.0
1979-08-07 01:01:54.430 ,1,1,0.,24.0,0.,24.0
1979-08-07 01:02:18.430 ,1,0,0.,24.0,0.,24.0
1979-08-07 01:02:42.430 ,2,1,0.,24.0,0.,24.0
1979-08-07 01:03:06.430 ,2,0,0.,24.0,0.,24.0
1979-08-07 01:03:30.430 ,3,1,0.,24.0,0.,24.0
1979-08-07 01:03:54.430 ,0,0,,0,,0
1979-08-07 01:04:18.430 ,4,1,0.,24.0,0.,24.0
1979-08-07 01:04:42.430 ,4,0,0.,24.0,0.,24.0
1979-08-07 01:05:06.430 ,5,1,0.,24.0,0.,24.0
1979-08-07 01:05:30.430 ,5,0,0.,24.0,0.,24.0
1979-08-07 01:05:54.430 ,6,1,0.,24.0,0.,24.0
1979-08-07 01:06:18.430 ,6,0,0.,24.0,0.,24.0
1979-08-07 01:06:42.430 ,7,0,0.,24.0,0.,24.0
1979-08-07 01:07:06.430 ,7,0,0.,24.0,0.,24.0
1979-08-07 01:07:30.430 ,3,1,0.,24.0,0.,24.0
1979-08-07 01:07:54.430 ,0,1,0.,24.0,0.,24.0
1979-08-07 01:08:18.430 ,4,1,0.,24.0,0.,24.0
1979-08-07 01:08:42.430 ,7,1,0.,24.0,0.,24.0
1979-08-07 01:09:06.430 ,3,1,0.,24.0,0.,24.0
1979-08-07 01:09:30.430 ,0,1,0.,24.0,0.,24.0
1979-08-07 01:09:54.430 ,4,1,0.,24.0,0.,24.0
1979-08-07 01:10:18.430 ,7,1,0.,24.0,0.,24.0
1979-08-07 01:10:42.430 ,3,1,0.,24.0,0.,24.0
1979-08-07 01:11:06.430 ,0,1,0.,24.0,0.,24.0
1979-08-07 01:11:30.430 ,4,1,0.,24.0,0.,24.0
1979-08-07 01:11:54.430 ,7,1,0.,24.0,0.,24.0
1979-08-07 01:12:18.430 ,3,1,0.,24.0,0.,24.0
1979-08-07 01:12:42.430 ,0,1,0.,24.0,0.,24.0
1979-08-07 01:13:06.430 ,4,1,0.,24.0,0.,24.0
1979-08-07 01:13:30.430 ,7,1,0.,24.0,0.,24.0
1979-08-07 01:13:54.430 ,3,1,0.,24.0,0.,24.0
1979-08-07 01:14:18.430 ,0,1,0.,24.0,0.,24.0
1979-08-07 01:14:42.430 ,4,1,0.,24.0,0.,24.0
1979-08-07 01:15:06.430 ,7,1,0.,24.0,0.,24.0
1979-08-07 01:15:30.430 ,3,1,0.,24.0,0.,24.0
1979-08-07 01:15:54.430 ,0,1,0.,24.0,0.,24.0
1979-08-07 01:16:18.430 ,4,1,0.,24.0,0.,24.0
1979-08-07 01:16:42.430 ,7,1,0.,24.0,0.,24.0
1979-08-07 01:17:06.430 ,3,1,0.,24.0,0.,24.0
1979-08-07 01:17:30.430 ,0,1,0.,24.0,0.,24.0
1979-08-07 01:17:54.430 ,0,0,0.,24.0,0.,24.0
1979-08-07 01:18:18.430 ,0,0,0.,24.0,0.,24.0
1979-08-07 01:18:42.430 ,5,1,0.,24.0,0.,24.0
1979-08-07 01:19:06.430 ,5,0,0.,24.0,0.,24.0
1979-08-07 01:19:30.430 ,4,1,0.,24.0,0.,24.0
1979-08-07 01:19:54.430 ,4,0,0.,24.0,0.,24.0
1979-08-07 01:20:18.430 ,3,1,1.,24.0,0.,24.0
1979-08-07 01:20:42.430 ,3,0,0.,24.0,0.,24.0
1979-08-07 01:21:06.430 ,2,1,0.,24.0,0.,24.0
1979-08-07 01:21:30.430 ,2,0,0.,24.0,0.,24.0
1979-08-07 01:21:54.430 ,1,1,0.,24.0,0.,24.0
1979-08-07 01:22:18.430 ,1,0,0.,24.0,0.,24.0
1979-08-07 01:22:42.430 ,0,1,0.,24.0,0.,24.0
1979-08-07 01:23:06.430 ,0,0,0.,24.0,0.,24.0
1979-08-07 01:23:30.430 ,0,1,0.,24.0,0.,24.0
1979-08-07 01:23:54.430 ,0,0,0.,24.0,0.,24.0
1979-08-07 01:24:18.430 ,1,1,0.,24.0,0.,24.0
1979-08-07 01:24:42.430 ,1,0,0.,24.0,0.,24.0
1979-08-07 01:25:06.430 ,2,1,0.,24.0,0.,24.0
1979-08-07 01:25:30.430 ,2,0,0.,24.0,0.,24.0
1979-08-07 01:25:54.430 ,3,1,0.,24.0,0.,24.0
1979-08-07 01:26:18.430 ,3,0,0.,24.0,0.,24.0
1979-08-07 01:26:42.430 ,0,0,,0,,0
1979-08-07 01:27:06.430 ,0,0,,0,,0
1979-08-07 01:27:06.430 ,4,0,0.,24.0,0.,24.0
1979-08-07 01:27:30.430 ,5,1,0.,24.0,0.,24.0
1979-08-07 01:27:54.430 ,5,0,0.,24.0,0.,24.0
1979-08-07 01:28:18.430 ,6,1,0.,24.0,0.,24.0
1979-08-07 01:28:42.430 ,6,0,0.,24.0,0.,24.0
1979-08-07 01:29:06.430 ,0,0,0.,24.0,0.,24.0
1979-08-07 01:29:30.430 ,0,0,0.,24.0,0.,24.0
1979-08-07 01:29:54.430 ,0,0,,0,,0
1979-08-07 01:30:18.430 ,0,0,0.,24.0,0.,24.0
1979-08-07 01:30:42.430 ,6,1,0.,24.0,0.,24.0
1979-08-07 01:31:06.430 ,6,0,0.,24.0,0.,24.0
1979-08-07 01:31:30.430 ,5,1,0.,24.0,0.,24.0
1979-08-07 01:31:54.430 ,5,0,0.,24.0,0.,24.0
1979-08-07 01:32:18.430 ,4,1,0.,24.0,0.,24.0
1979-08-07 01:32:42.430 ,4,0,0.,24.0,0.,24.0
1979-08-07 01:33:06.430 ,3,1,0.,24.0,0.,24.0
1979-08-07 01:33:30.430 ,3,0,0.,24.0,0.,24.0
1979-08-07 01:33:54.430 ,2,1,0.,24.0,0.,24.0
1979-08-07 01:34:18.430 ,2,0,0.,24.0,0.,24.0
1979-08-07 01:34:42.420 ,1,1,0.,24.0,0.,24.0
1979-08-07 01:35:06.420 ,1,0,0.,24.0,0.,24.0
1979-08-07 01:35:54.420 ,0,0,0.,24.0,0.,24.0
1979-08-07 01:36:18.420 ,0,1,0.,24.0,0.,24.0
1979-08-07 01:36:42.420 ,0,0,0.,24.0,0.,24.0
1979-08-07 01:37:06.420 ,1,1,0.,24.0,0.,24.0
1979-08-07 01:37:30.420 ,1,0,0.,24.0,0.,24.0
1979-08-07 01:37:54.420 ,2,1,0.,24.0,0.,24.0
1979-08-07 01:38:18.420 ,2,0,0.,24.0,0.,24.0
1979-08-07 01:38:42.420 ,3,1,0.,24.0,0.,24.0
1979-08-07 01:39:06.420 ,3,0,0.,24.0,0.,24.0
1979-08-07 01:39:30.420 ,4,1,0.,24.0,0.,24.0
1979-08-07 01:39:54.420 ,4,0,0.,24.0,0.,24.0
1979-08-07 01:40:18.420 ,5,1,0.,24.0,0.,24.0
1979-08-07 01:40:42.420 ,5,0,0.,24.0,0.,24.0
1979-08-07 01:41:06.420 ,6,1,0.,24.0,0.,24.0
1979-08-07 01:41:30.420 ,6,0,0.,24.0,0.,24.0
1979-08-07 01:41:54.420 ,7,1,0.,24.0,0.,24.0
1979-08-07 01:42:18.420 ,7,0,0.,24.0,0.,24.0
1979-08-07 01:42:42.420 ,7,1,0.,24.0,0.,24.0
1979-08-07 01:43:06.420 ,7,0,0.,24.0,0.,24.0
1979-08-07 01:43:31.020 ,6,1,0.,24.0,0.,24.0
1979-08-07 01:43:54.420 ,6,0,0.,24.0,0.,24.0
1979-08-07 01:44:18.420 ,5,1,0.,24.0,0.,24.0
1979-08-07 01:44:42.420 ,5,0,0.,24.0,0.,24.0
1979-08-07 01:45:06.420 ,4,1,0.,24.0,0.,24.0
1979-08-07 01:45:30.420 ,4,0,0.,24.0,0.,24.0
1979-08-07 01:45:54.420 ,3,1,0.,24.0,0.,24.0
1979-08-07 01:46:18.420 ,3,0,0.,24.0,0.,24.0
1979-08-07 01:46:42.420 ,2,1,0.,24.0,0.,24.0
1979-08-07 01:47:06.420 ,2,0,0.,24.0,0.,24.0
1979-08-07 01:47:30.420 ,1,1,0.,24.0,0.,24.0
1979-08-07 01:47:54.420 ,1,0,0.,24.0,0.,24.0
1979-08-07 01:48:18.420 ,0,1,0.,24.0,0.,24.0
1979-08-07 01:48:42.420 ,0,0,0.,24.0,0.,24.0
1979-08-07 01:49:06.420 ,0,1,0.,24.0,0.,24.0
1979-08-07 01:49:30.420 ,0,0,0.,24.0,0.,24.0
1979-08-07 01:49:54.420 ,1,1,0.,24.0,0.,24.0
1979-08-07 01:50:18.420 ,1,0,0.,24.0,0.,24.0
1979-08-07 01:50:42.420 ,2,1,0.,24.0,0.,24.0
1979-08-07 01:51:06.420 ,2,0,0.,24.0,0.,24.0
1979-08-07 01:51:30.420 ,3,1,0.,24.0,0.,24.0
1979-08-07 01:51:54.420 ,3,0,0.,24.0,0.,24.0
1979-08-07 01:52:18.420 ,4,1,0.,24.0,0.,24.0
1979-08-07 01:52:42.420 ,4,0,0.,24.0,0.,24.0
1979-08-07 01:53:06.420 ,5,1,0.,24.0,0.,24.0
1979-08-07 01:53:30.420 ,5,0,0.,24.0,0.,24.0
1979-08-07 01:53:54.420 ,6,1,0.,24.0,0.,24.0
1979-08-07 01:54:18.420 ,6,0,0.,24.0,0.,24.0
1979-08-07 01:54:42.420 ,7,0,0.,24.0,0.,24.0
1979-08-07 01:55:06.420 ,7,0,0.,24.0,0.,24.0
1979-08-07 01:55:30.420 ,3,1,0.,24.0,0.,24.0
1979-08-07 01:55:54.420 ,0,1,0.,24.0,0.,24.0
1979-08-07 01:56:18.420 ,4,1,0.,24.0,0.,24.0
1979-08-07 01:56:42.420 ,7,1,0.,24.0,0.,24.0
1979-08-07 01:57:06.420 ,3,1,0.,24.0,0.,24.0
1979-08-07 01:57:30.420 ,0,1,0.,24.0,0.,24.0
1979-08-07 01:57:54.420 ,4,1,0.,24.0,0.,24.0
1979-08-07 01:58:18.420 ,7,1,0.,24.0,0.,24.0
1979-08-07 01:58:42.420 ,3,1,0.,24.0,0.,24.0
1979-08-07 01:59:06.420 ,0,1,0.,24.0,0.,24.0
1979-08-07 01:59:30.420 ,4,1,0.,24.0,0.,24.0
1979-08-07 01:59:54.420 ,7,1,0.,24.0,0.,24.0
1979-08-07 02:00:18.420 ,3,1,0.,24.0,0.,24.0
1979-08-07 02:00:42.420 ,0,1,0.,24.0,0.,24.0
1979-08-07 02:01:06.420 ,4,1,0.,24.0,0.,24.0
1979-08-07 02:01:30.420 ,7,1,0.,24.0,0.,24.0
1979-08-07 02:01:54.420 ,3,1,0.,24.0,0.,24.0
1979-08-07 02:02:18.420 ,0,1,0.,24.0,0.,24.0
1979-08-07 02:02:42.420 ,4,1,0.,24.0,0.,24.0
1979-08-07 02:03:06.420 ,7,1,0.,24.0,0.,24.0
1979-08-07 02:03:30.420 ,3,1,0.,24.0,0.,24.0
1979-08-07 02:03:54.420 ,0,1,0.,24.0,0.,24.0
1979-08-07 02:04:18.420 ,4,1,0.,24.0,0.,24.0
1979-08-07 02:04:42.420 ,7,1,0.,24.0,0.,24.0
1979-08-07 02:05:06.420 ,3,1,0.,24.0,0.,24.0
1979-08-07 02:05:30.420 ,0,1,0.,24.0,0.,24.0
1979-08-07 02:05:54.420 ,0,0,0.,24.0,0.,24.0
1979-08-07 02:06:18.420 ,0,0,0.,24.0,0.,24.0
1979-08-07 02:06:42.420 ,5,1,0.,24.0,0.,24.0
1979-08-07 02:07:06.420 ,5,0,0.,24.0,0.,24.0
1979-08-07 02:07:30.420 ,4,1,0.,24.0,0.,24.0
1979-08-07 02:07:54.420 ,4,0,0.,24.0,0.,24.0
1979-08-07 02:08:18.420 ,3,1,0.,24.0,0.,24.0
1979-08-07 02:08:42.420 ,3,0,0.,24.0,0.,24.0
1979-08-07 02:09:06.420 ,2,1,0.,24.0,0.,24.0
1979-08-07 02:09:30.420 ,2,0,0.,24.0,0.,24.0
1979-08-07 02:09:54.420 ,1,1,0.,24.0,0.,24.0
1979-08-07 02:10:18.420 ,1,0,0.,24.0,0.,24.0
1979-08-07 02:10:42.420 ,0,1,0.,24.0,0.,24.0
1979-08-07 02:11:06.420 ,0,0,0.,24.0,0.,24.0
1979-08-07 02:11:30.420 ,0,1,0.,24.0,0.,24.0
1979-08-07 02:11:54.420 ,0,0,0.,24.0,0.,24.0
1979-08-07 02:12:18.420 ,1,1,0.,24.0,0.,24.0
1979-08-07 02:12:42.420 ,1,0,0.,24.0,0.,24.0
1979-08-07 02:13:06.420 ,2,1,0.,24.0,0.,24.0
1979-08-07 02:13:30.420 ,2,0,0.,24.0,0.,24.0
1979-08-07 02:13:54.420 ,3,1,0.,24.0,0.,24.0
1979-08-07 02:14:18.420 ,3,0,0.,24.0,0.,24.0
1979-08-07 02:14:42.420 ,4,1,0.,24.0,0.,24.0
1979-08-07 02:15:06.420 ,4,0,0.,24.0,0.,24.0
1979-08-07 02:15:30.420 ,5,1,0.,24.0,0.,24.0
1979-08-07 02:15:54.420 ,5,0,0.,24.0,0.,24.0
1979-08-07 02:16:18.420 ,6,1,0.,24.0,0.,24.0
1979-08-07 02:16:42.420 ,6,0,0.,24.0,0.,24.0
1979-08-07 02:17:06.420 ,7,1,0.,24.0,0.,24.0
1979-08-07 02:17:30.420 ,7,0,0.,24.0,0.,24.0
1979-08-07 02:17:54.420 ,7,1,0.,24.0,0.,24.0
1979-08-07 02:18:18.420 ,7,0,0.,24.0,0.,24.0
1979-08-07 02:18:42.420 ,6,1,0.,24.0,0.,24.0
1979-08-07 02:19:06.420 ,6,0,0.,24.0,0.,24.0
1979-08-07 02:19:30.420 ,5,1,0.,24.0,0.,24.0
1979-08-07 02:19:54.420 ,5,0,0.,24.0,0.,24.0
1979-08-07 02:20:18.420 ,4,1,0.,24.0,0.,24.0
1979-08-07 02:20:42.420 ,4,0,0.,24.0,0.,24.0
1979-08-07 02:21:54.420 ,0,0,0.,24.0,0.,24.0
1979-08-07 02:22:18.420 ,0,0,0.,24.0,0.,24.0
1979-08-07 02:22:42.420 ,1,1,0.,24.0,0.,24.0
1979-08-07 02:23:06.420 ,1,0,0.,24.0,0.,24.0
1979-08-07 02:23:30.420 ,0,1,0.,24.0,0.,24.0
1979-08-07 02:23:54.420 ,0,0,0.,24.0,0.,24.0
1979-08-07 02:24:18.420 ,0,1,0.,24.0,0.,24.0
1979-08-07 02:24:42.420 ,0,0,0.,24.0,0.,24.0
1979-08-07 02:25:06.420 ,1,1,0.,24.0,0.,24.0
1979-08-07 02:25:30.420 ,1,0,0.,24.0,0.,24.0
1979-08-07 02:25:54.420 ,0,0,,0,,0
1979-08-07 02:26:18.420 ,0,0,0.,24.0,0.,24.0
1979-08-07 02:26:42.420 ,3,1,0.,24.0,0.,24.0
1979-08-07 02:27:06.420 ,3,0,0.,24.0,0.,24.0
1979-08-07 02:27:30.420 ,4,1,0.,24.0,0.,24.0
1979-08-07 02:27:54.420 ,4,0,0.,24.0,0.,24.0
1979-08-07 02:28:18.420 ,5,1,0.,24.0,0.,24.0
1979-08-07 02:28:42.420 ,5,0,0.,24.0,0.,24.0
1979-08-07 02:29:06.420 ,6,1,0.,24.0,0.,24.0
1979-08-07 02:29:30.420 ,6,0,0.,24.0,0.,24.0
1979-08-07 02:29:54.420 ,7,1,0.,24.0,0.,24.0
1979-08-07 02:30:18.420 ,7,0,0.,24.0,0.,24.0
1979-08-07 02:30:42.420 ,7,1,0.,24.0,0.,24.0
1979-08-07 02:31:06.420 ,7,0,0.,24.0,0.,24.0
1979-08-07 02:31:30.420 ,6,1,0.,24.0,0.,24.0
1979-08-07 02:31:54.420 ,6,0,0.,24.0,0.,24.0
1979-08-07 02:32:18.420 ,5,1,0.,24.0,0.,24.0
1979-08-07 02:32:42.420 ,0,0,0.,24.0,0.,24.0
1979-08-07 02:33:06.420 ,4,1,0.,24.0,0.,24.0
1979-08-07 02:33:30.420 ,4,0,0.,24.0,0.,24.0
1979-08-07 02:33:54.420 ,3,1,0.,24.0,0.,24.0
1979-08-07 02:34:18.420 ,3,0,0.,24.0,0.,24.0
1979-08-07 02:34:42.420 ,2,1,0.,24.0,0.,24.0
1979-08-07 02:35:06.420 ,2,0,0.,24.0,0.,24.0
1979-08-07 02:35:30.420 ,1,1,0.,24.0,0.,24.0
1979-08-07 02:35:54.420 ,1,0,0.,24.0,0.,24.0
1979-08-07 02:36:18.420 ,0,1,0.,24.0,0.,24.0
1979-08-07 02:36:42.420 ,0,0,0.,24.0,0.,24.0
1979-08-07 02:37:06.420 ,0,1,0.,24.0,0.,24.0
1979-08-07 02:37:30.420 ,0,0,0.,24.0,0.,24.0
1979-08-07 02:37:54.420 ,1,1,0.,24.0,0.,24.0
1979-08-07 02:38:18.420 ,1,0,0.,24.0,0.,24.0
1979-08-07 02:38:42.420 ,2,1,0.,24.0,0.,24.0
1979-08-07 02:39:06.420 ,2,0,0.,24.0,0.,24.0
1979-08-07 02:39:30.420 ,3,1,0.,24.0,0.,24.0
1979-08-07 02:39:54.420 ,3,0,0.,24.0,0.,24.0
1979-08-07 02:40:18.420 ,4,1,0.,24.0,0.,24.0
1979-08-07 02:40:42.420 ,4,0,0.,24.0,0.,24.0
1979-08-07 02:41:06.420 ,5,1,0.,24.0,0.,24.0
1979-08-07 02:41:30.420 ,5,0,0.,24.0,0.,24.0
1979-08-07 02:41:54.420 ,6,1,0.,24.0,0.,24.0
1979-08-07 02:42:18.420 ,6,0,0.,24.0,0.,24.0
1979-08-07 02:42:42.420 ,7,0,0.,24.0,0.,24.0
1979-08-07 02:43:06.420 ,7,0,0.,24.0,0.,24.0
1979-08-07 02:43:30.420 ,3,1,0.,24.0,0.,24.0
1979-08-07 02:43:54.420 ,0,1,0.,24.0,0.,24.0
1979-08-07 02:44:18.420 ,4,1,0.,24.0,0.,24.0
1979-08-07 02:44:42.420 ,7,1,0.,24.0,0.,24.0
1979-08-07 02:45:06.420 ,3,1,0.,24.0,0.,24.0
1979-08-07 02:45:30.420 ,0,1,0.,24.0,0.,24.0
1979-08-07 02:45:54.420 ,4,1,0.,24.0,0.,24.0
1979-08-07 02:46:18.420 ,7,1,0.,24.0,0.,24.0
1979-08-07 02:46:42.420 ,3,1,0.,24.0,0.,24.0
1979-08-07 02:47:06.420 ,0,1,0.,24.0,0.,24.0
1979-08-07 02:47:30.420 ,4,1,0.,24.0,0.,24.0
1979-08-07 02:47:54.420 ,7,1,0.,24.0,0.,24.0
1979-08-07 02:48:18.420 ,3,1,0.,24.0,0.,24.0
1979-08-07 02:48:42.420 ,0,1,0.,24.0,0.,24.0
1979-08-07 02:49:06.420 ,4,1,0.,24.0,0.,24.0
1979-08-07 02:49:30.420 ,7,1,0.,24.0,0.,24.0
1979-08-07 02:49:54.420 ,3,1,0.,24.0,0.,24.0
1979-08-07 02:50:18.420 ,0,1,0.,24.0,0.,24.0
1979-08-07 02:50:42.420 ,4,1,0.,24.0,0.,24.0
1979-08-07 02:51:06.420 ,7,1,0.,24.0,0.,24.0
1979-08-07 02:51:30.420 ,3,1,0.,24.0,0.,24.0
1979-08-07 02:51:54.420 ,0,1,0.,24.0,0.,24.0
1979-08-07 02:52:18.420 ,4,1,0.,24.0,0.,24.0
1979-08-07 02:52:42.420 ,7,1,0.,24.0,0.,24.0
1979-08-07 02:53:06.420 ,3,1,0.,24.0,0.,24.0
1979-08-07 02:53:30.420 ,0,1,0.,24.0,0.,24.0
1979-08-07 02:53:54.420 ,0,0,0.,24.0,0.,24.0
1979-08-07 02:54:18.420 ,0,0,0.,24.0,0.,24.0
1979-08-07 02:54:42.420 ,5,1,0.,24.0,0.,24.0
1979-08-07 02:55:06.420 ,5,0,0.,24.0,0.,24.0
1979-08-07 02:55:30.420 ,4,1,0.,24.0,0.,24.0
1979-08-07 02:55:54.420 ,4,0,0.,24.0,0.,24.0
1979-08-07 02:56:18.420 ,3,1,0.,24.0,0.,24.0
1979-08-07 02:56:42.420 ,3,0,0.,24.0,0.,24.0
1979-08-07 02:57:06.420 ,2,1,0.,24.0,0.,24.0
1979-08-07 02:57:30.420 ,0,0,0.,24.0,0.,24.0
1979-08-07 02:57:54.420 ,1,1,0.,24.0,0.,24.0
1979-08-07 02:58:18.420 ,1,0,0.,24.0,0.,24.0
1979-08-07 02:58:42.420 ,0,1,0.,24.0,0.,24.0
1979-08-07 02:59:06.420 ,0,0,0.,24.0,0.,24.0
1979-08-07 02:59:30.420 ,0,1,0.,24.0,0.,24.0
1979-08-07 02:59:54.420 ,0,0,0.,24.0,0.,24.0
1979-08-07 03:00:18.420 ,1,1,0.,24.0,0.,24.0
